Regional Weather Roundup
Issued by NWS Lake Charles, LA

Home | Current Version | Previous Version | Text Only | Print | Product List | Glossary On
Versions: 1 2 3 4 5 6 7 8 9 10 11 12 13 14 15 16 17 18 19 20 21 22 23 24 25 26 27 28
000
ASUS44 KLCH 060010
RWRLCH
REGIONAL WEATHER ROUNDUP
NATIONAL WEATHER SERVICE LAKE CHARLES LA
700 PM CDT THU MAY 05 2016

Note: "fair" indicates few or no clouds below 12,000 feet with no
significant weather and/or obstructions to visibility.


ACROSS SOUTHEAST TEXAS

CITY           SKY/WX    TMP DP  RH WIND       PRES   REMARKS
BEAUMONT       SUNNY     79  50  36 N8        29.92S
BEAUMONT CITY  FAIR      79  48  33 N7        29.93F
ORANGE         CLEAR     77  39  25 NW6       29.95S
JASPER         SUNNY     76  46  33 N6        29.97S
$$

ACROSS CENTRAL LOUISIANA

CITY           SKY/WX    TMP DP  RH WIND       PRES   REMARKS
LEESVILLE      SUNNY     76  46  34 N8        29.92F
FULLERTON      FAIR      74  45  35 VRB3      29.91
ALEXANDRIA INT CLEAR     76  46  34 NW12      29.91S
ESLER FIELD    CLEAR     78  44  29 VRB7      29.93R
DERIDDER       FAIR      76  43  30 NW9       29.95F
OAKDALE        CLEAR     76  47  36 N7        29.93R
OPELOUSAS      FAIR      74  48  38 NW6       29.91F
$$

ACROSS SOUTHWEST AND SOUTH CENTRAL LOUISIANA

CITY           SKY/WX    TMP DP  RH WIND       PRES   REMARKS
SULPHUR        CLEAR     78  42  27 N6        29.93S
LAKE CHARLES   SUNNY     78  40  25 N10       29.92S
CHENNAULT INT  NOT AVBL
CAMERON PHI    CLEAR     81  46  30 N7G15     29.95S
DEQUINCY       FAIR      77  48  35 N3        29.93S
JENNINGS       FAIR      77  48  36 N9        29.92S
LAFAYETTE      CLEAR     78  45  30 N12       29.91S
NEW IBERIA     CLEAR     76  48  37 N7        29.91S
ABBEVILLE      FAIR      73  52  47 N7        29.91S
PATTERSON      NOT AVBL
SALT POINT       N/A     76  50  40 N3        29.89S
$$

SELECTED SITES ACROSS THE REGION

CITY           SKY/WX    TMP DP  RH WIND       PRES   REMARKS
HOUSTON BUSH   PTSUNNY   78  46  32 N8        29.94S
HOUSTON HOBBY  PTSUNNY   83  41  22 N12       29.92F
GALVESTON      CLOUDY    79  56  45 N10       29.93F
COLLEGE STAT   CLOUDY    80  48  32 N12       29.96F
CONROE         CLOUDY    78  47  33 N7        29.95F
HUNTSVILLE     CLOUDY    77  50  38 VRB3      29.96F
LUFKIN         SUNNY     77  46  33 N7        29.95F
SHREVEPORT     MOSUNNY   77  46  33 N10       29.95S
MONROE         CLEAR     74  46  36 N8        29.94S
NATCHEZ MS     CLEAR     72  43  35 N6        29.93S
BATON ROUGE    CLEAR     75  41  29 NW7       29.91R
N.O. INTL ARPT PTCLDY    77  47  34 NW14      29.87S
SLIDELL        CLEAR     76  46  34 N7        29.86S
$$

MARINE REPORTS

STATION/POSITION TIME  SKY/WX   TEMP    WIND        PRES    VSBY
                                AIR SEA DIR/SP/G
                 (UTC)          (F)     (DEG/KT/KT) (MB)    (MI)
BUOY 30 S HIGH I 2350            80 79  340/ 12/ 14 1012.9F
WVE H/P(F/S)=  1/ 3

SEA RIM ST PARK  0000            78     340/  5/  7 1013.7F
PORT ARTHUR      2300               75              1013.7R
SABINE PASS N    2300               76              1014.9R
TEXAS POINT      NOT AVBL
CALCASIEU PASS   2300               77              1012.5F
LK CHARLES BEACH 2300               76              1013.8S
MARSH ISLAND     2300            77      80/  9/ 12   N/A
FRESH WATER LOCK 2300               76              1013.5S
AMERADA PASS     2300               78              1012.2R
$$




USA.gov is the U.S. government's official web portal to all federal, state and local government web resources and services.